パンスターズ彗星

P/2019 S3 ( PanSTARRS )

English version
Home page
Updated on November 9, 2019

---------------------------------------------------------------------

・ プロフィール

発見日 2019年9月25日
発見光度 20.7等
発見者 Pan-STARRS 1 telescope (Haleakala)

・ 軌道要素

Epoch 2019 Aug. 25.0 TT = JDT 2458720.5
T 2019 Aug. 26.09649 TT                                 Williams
q   1.8067896            (2000.0)            P               Q
n   0.15631465     Peri.  212.95081     +0.99540903     -0.05923846
a   3.4129998      Node   150.17014     +0.07767747     +0.95889625
e   0.4706154      Incl.    8.69260     -0.05592028     +0.27750455
P   6.31
From 56 observations 2019 Aug. 27-Nov. 2, mean residual 0".5.

・ 光度変化

        m1 = 17.5 + 5 logΔ + 10.0 log r

---------------------------------------------------------------------

軌道要素はM.P.E.C. 2019-V116に掲載されたものです。
光度グラフはComet for Windowsで作成したものです。

---------------------------------------------------------------------

Copyright(C) Seiichi Yoshida (comet@aerith.net). All rights reserved.